Satellite: FENGYUN 1D
Catalog number: 27431
Epoch time:      103050.23366041
Element set:     218 
Inclination:       98.7701 deg
RA of node:        99.1986 deg
Eccentricity:    0.0016110
Arg of perigee:   121.1033 deg
Mean anomaly:     239.1720 deg
Mean motion:   14.09179759 rev/day
Decay rate:    1.0100E-006 rev/day^2
Epoch rev:            3946
Checksum:              270

Satellite: NOAA 17
Catalog number: 27453
Epoch time:      103049.91711594
Element set:     308 
Inclination:       98.7560 deg
RA of node:       121.1267 deg
Eccentricity:    0.0011758
Arg of perigee:     0.2086 deg
Mean anomaly:     359.9094 deg
Mean motion:   14.23294437 rev/day
Decay rate:    3.0300E-006 rev/day^2
Epoch rev:            3401
Checksum:              292

Satellite: HOT BIRD 6
Catalog number: 27499
Epoch time:      103047.86842035
Element set:     68 
Inclination:        0.0734 deg
RA of node:       296.2656 deg
Eccentricity:    0.0009015
Arg of perigee:    74.9399 deg
Mean anomaly:     100.7717 deg
Mean motion:    1.00273159 rev/day
Decay rate:    8.3999E-007 rev/day^2
Epoch rev:             181
Checksum:              323

Satellite: RUBIN 2
Catalog number: 27605
Epoch time:      103049.91988211
Element set:     62 
Inclination:       64.5514 deg
RA of node:       196.1692 deg
Eccentricity:    0.0035532
Arg of perigee:   113.1583 deg
Mean anomaly:     247.3266 deg
Mean motion:   14.71377552 rev/day
Decay rate:    1.5740E-005 rev/day^2
Epoch rev:             886
Checksum:              406


Read previous mail | Read next mail


 11.09.2026 14:30:48lGo back Go up